This is the latest recevied weather packets stored in our database for station/object SP4IM-13. If no packets are shown the sender has not sent any weather packets the latest 10 day(s).
| Time | Temp. | Humidity | Pressure | Rain* | Wind** | Luminosity | Snow |
|---|---|---|---|---|---|---|---|
| 1778144403 | 22.22° C | 62% | 1006 hPa | - | - | - | - |
| 1778143805 | 22.22° C | 61% | 1006 hPa | - | - | - | - |
| 1778143202 | 22.78° C | 59% | 1006 hPa | - | - | - | - |
| 1778142603 | 23.33° C | 58% | 1006 hPa | - | - | - | - |
| 1778142004 | 23.89° C | 58% | 1005 hPa | - | - | - | - |
| 1778141402 | 23.33° C | 55% | 1005 hPa | - | - | - | - |
| 1778140803 | 22.22° C | 53% | 1005 hPa | - | - | - | - |
| 1778140204 | 20.56° C | 50% | 1005 hPa | - | - | - | - |
| 1778139604 | 20° C | 51% | 1005 hPa | - | - | - | - |
| 1778139006 | 20° C | 51% | 1005 hPa | - | - | - | - |
| 1778138406 | 19.44° C | 51% | 1005 hPa | - | - | - | - |
| 1778137806 | 19.44° C | 53% | 1005 hPa | - | - | - | - |
| 1778137207 | 18.89° C | 56% | 1004 hPa | - | - | - | - |
| 1778136605 | 18.89° C | 57% | 1004 hPa | - | - | - | - |
| 1778136006 | 18.89° C | 57% | 1004 hPa | - | - | - | - |
| 1778135404 | 18.89° C | 56% | 1004 hPa | - | - | - | - |
| 1778134803 | 18.89° C | 56% | 1004 hPa | - | - | - | - |
| 1778134205 | 18.33° C | 56% | 1004 hPa | - | - | - | - |
| 1778133608 | 18.33° C | 55% | 1004 hPa | - | - | - | - |
| 1778133005 | 17.22° C | 54% | 1004 hPa | - | - | - | - |
| 1778132403 | 17.22° C | 54% | 1004 hPa | - | - | - | - |
| 1778131803 | 17.78° C | 56% | 1004 hPa | - | - | - | - |
| 1778131204 | 17.22° C | 62% | 1004 hPa | - | - | - | - |
| 1778130604 | 16.67° C | 65% | 1004 hPa | - | - | - | - |
| 1778130007 | 16.67° C | 70% | 1004 hPa | - | - | - | - |
* Rain since midnight (hover to see other rain measurements)
** Current wind speed in m/s (hover to see current wind gust speed)